www.pogodaiklimat.ru

Погода и климат >> Архив погоды >> Индонезия >> Meulaboh


ПОГОДА в Meulaboh

  • Прогноз погоды в Meulaboh
  • Монитор погоды в Meulaboh
  • Климат города

АРХИВ ПОГОДЫ в Meulaboh

Время (UTC), дата Ветер
(напр.,м/с)
 
Видим.   Явления Облачность Т
(С)
Тd
(С)
f
(%)
Тe
(С)
Тes
(С)
Комфортность P
(гПа)
Po
(гПа)
Тmin
(С)
Tmax
(С)
R
(мм)
R24
(мм)
S
(см)
06 8.08 ЮВ 2 9000 м 8/4 480 м
[Sc Ac As Ci sp]
+28.5 +25.3 83 +42 +51 опасность
перегрева
1010.1 1009.5
09 8.08 ЮЗ 2 8000 м 8/4 450 м
[Sc Ac As Ci sp]
+29.2 +25.2 79 +42 +46 опасность
перегрева
1008.1 1007.6
12 8.08 6000 м 9/6 420 м
[Cb cap Ac As Ci sp]
+27.2 +25.2 89 1009.8 1009.2 +31.0
15 8.08 В 1 8000 м 9/5 500 м
[Sc Ac und Ci sp]
+24.6 +24.6 100 +34 +34 очень
душно
1012.0 1011.4
18 8.08 СВ 1 5000 м дымка 9/4 500 м
[Sc Ac und Ci sp]
+23.7 +23.7 100 +32 +32 очень
душно
1011.5 1010.9
21 8.08 штиль 0 8000 м 9/5 540 м
[Sc Ac As Ci fib]
+23.8 +23.4 98 +32 +32 очень
душно
1009.6 1009.0
00 9.08 СВ 2 5000 м дымка 9/6 500 м
[Sc Ac trans Ci fib]
+23.0 +22.7 98 +32 +32 очень
душно
1010.7 1010.1 +22.9
03 9.08 СЗ 2 3000 м слабый дождь 10/6 360 м
[Cb cap Ac trans]
+25.6 +24.0 91 +35 +37 очень
душно
1013.4 1012.8 1
06 9.08 СВ 2 8000 м в посл. час дождь 9/5 450 м
[Sc Ac As Ci sp]
+28.6 +25.0 81 +41 +48 опасность
перегрева
1011.5 1010.9 0.6
09 9.08 С 1 9000 м 9/4 500 м
[Sc Ac und Ci sp]
+29.6 +24.3 73 +41 +45 опасность
перегрева
1009.2 1008.6
12 9.08 С 1 8000 м 9/6 500 м
[Cb calv Ac und Ci sp]
+27.7 +23.4 77 +37 +37 очень
душно
1011.5 1010.9 +30.3
15 9.08 СВ 1 6000 м 9/6 420 м
[Cb cap Ac As Ci fib]
+24.7 +24.2 97 +34 +34 очень
душно
1013.2 1012.6
18 9.08 СВ 1 7000 м 9/6 450 м
[Cb cap Ac As Ci fib]
+24.5 +23.5 94 +33 +33 очень
душно
1013.1 1012.5
21 9.08 СВ 1 5000 м дымка 9/5 420 м
[Sc Ac As Ci sp]
+23.5 +23.5 100 +32 +32 очень
душно
1011.1 1010.5
00 10.08 СВ 1 5000 м дымка {дождь} 9/5 420 м
[Sc Ac As Ci sp]
+23.3 +23.3 100 +33 +33 очень
душно
1011.7 1011.1 2
03 10.08 В 2 8000 м 9/5
[Cb cap Ac As Ci sp]
+28.7 +25.1 81 +42 +46 опасность
перегрева
1013.6 1012.9
06 10.08 Ю 3 8000 м 9/5 500 м
[Sc Ac As Ci sp]
+29.2 +26.0 83 +44 +50 опасность
перегрева
1011.8 1011.2
09 10.08 ЮЗ 3 12 км 8/5 500 м
[Sc Ac As Ci fib]
+29.3 +25.0 78 +42 +45 опасность
перегрева
1010.4 1009.7
12 10.08 ЮЗ 2 10 км 6/4 500 м
[Sc Ac As Ci fib]
+27.3 +24.3 84 +38 +38 очень
душно
1011.4 1010.7 +30.3
15 10.08 В 1 6000 м 8/4 480 м
[Sc Ac As Ci sp]
+25.8 +24.7 94 +37 +37 очень
душно
1013.1 1012.5
18 10.08 В 1 6000 м 8/4 540 м
[Sc Ac As Ci sp]
+24.4 +24.1 98 +34 +34 очень
душно
1012.4 1011.8
21 10.08 СВ 1 6000 м 8/4 480 м
[Sc Ac As Ci sp]
+23.7 +23.7 100 +32 +32 очень
душно
1011.4 1010.8
00 11.08 СВ 2 5000 м дымка 8/4 500 м
[Sc Ac As Ci sp]
+22.9 +22.9 100 +32 +32 очень
душно
1011.5 1010.9 +21.0
03 11.08 В 1 13 км 6/3 540 м
[Sc Ac As Ci fib]
+30.0 +25.3 76 +44 +52 опасность
перегрева
1012.6 1012.0
06 11.08 З 2 12 км 8/4 500 м
[Sc Ac As Ci fib]
+31.5 +25.2 69 +45 +54 опасность
перегрева
1011.6 1011.0
09 11.08 СЗ 2 8000 м 9/5 500 м
[Sc Ac As Ci sp]
+29.9 +22.7 65 +39 +42 очень
душно
1009.4 1008.8
12 11.08 штиль 0 6000 м 9/4 480 м
[Sc Ac As Ci sp]
+27.7 +23.9 80 +38 +38 очень
душно
1010.3 1009.7 +32.4
15 11.08 штиль 0 8000 м 9/6 500 м
[Sc Ac lent Ci fib]
+26.0 +24.8 93 +37 +37 очень
душно
1012.4 1011.8
18 11.08 штиль 0 8000 м 9/5 500 м
[Sc Ac As Ci fib]
+24.9 +24.4 97 +35 +35 очень
душно
1011.8 1011.6
21 11.08 В 1 5000 м дымка 8/3 540 м
[Sc Ac trans Ci sp]
+22.9 +22.6 98 +31 +31 очень
душно
1010.6 1010.0
00 12.08 СВ 1 6000 м 8/3 540 м
[Sc Ac trans Cc]
+22.4 +22.1 98 +30 +30 очень
душно
1011.2 1010.6 +22.1
03 12.08 В 1 8000 м 5/3 540 м
[Sc Ac und Ci sp]
+28.7 +23.8 75 +40 +49 очень
душно
1011.9 1011.3
06 12.08 Ю 3 10 км 5/3 600 м
[Sc Ac und Ci fib]
+31.1 +23.6 64 +42 +54 опасность
перегрева
1010.9 1010.4
09 12.08 Ю 3 13 км 4/1 600 м
[Sc Ac trans Ci fib]
+31.0 +23.5 64 +42 +48 опасность
перегрева
1009.4 1008.8
12 12.08 штиль 0 9000 м 5/3 600 м
[Sc Ac trans Ci fib]
+29.1 +25.9 83 +44 +44 опасность
перегрева
1009.9 1009.3 +30.9
15 12.08 Ю 1 6000 м 9/5 450 м
[Sc Ac trans Ci sp]
+26.0 +24.2 90 +36 +36 очень
душно
1011.8 1011.2
18 12.08 В 1 6000 м 9/5 450 м
[Sc Ac As Ci sp]
+24.5 +23.7 95 +33 +33 очень
душно
1011.8 1011.1
21 12.08 СВ 1 5000 м осадки на расстоянии 9/6 450 м
[Sc Ac As Ci fib]
+24.0 +23.0 94 +32 +32 очень
душно
1010.5 1009.9
00 13.08 В 1 5000 м дымка 9/5 500 м
[Sc Ac As Ci fib]
+23.5 +22.8 96 +31 +31 очень
душно
1010.8 1010.2 +23.0
03 13.08 ЮВ 2 12 км 9/4 540 м
[Sc Ac As Ci fib]
+28.7 +24.5 78 +41 +46 опасность
перегрева
1011.9 1011.3
06 13.08 Ю 5 13 км 9/5 500 м
[Sc Ac As Ci fib]
+31.9 +23.3 60 +42 +46 опасность
перегрева
1011.0 1010.4
09 13.08 Ю 4 10 км 9/5 420 м
[Sc Ac trans Ci sp]
+31.7 +24.0 64 +44 +45 опасность
перегрева
1009.3 1008.7
12 13.08 ЮВ 2 6000 м 9/5 420 м
[Sc Ac As Ci sp]
+28.4 +23.2 73 +38 +38 очень
душно
1009.8 1009.2 +32.6
15 13.08 В 1 6000 м 8/4 500 м
[Sc Ac As Ci sp]
+25.7 +23.5 88 +35 +35 очень
душно
1012.0 1011.4
18 13.08 В 1 6000 м 8/4 500 м
[Sc Ac As Ci sp]
+25.1 +23.3 90 +34 +34 очень
душно
1010.8 1010.3
21 13.08 СВ 1 6000 м 6/3 500 м
[Sc Ac und Ci sp]
+24.1 +23.0 94 +32 +32 очень
душно
1009.5 1008.9
00 14.08 ЮВ 1 7000 м 8/4 480 м
[Sc Ac As Ci sp]
+24.8 +23.1 90 +33 +33 очень
душно
1010.4 1009.8 +23.0
03 14.08 СВ 2 7000 м в посл. час дождь 8/5 450 м
[Cu med, cong Ac As Ci sp]
+26.2 +24.8 92 +37 +42 очень
душно
1012.1 1011.5 7
06 14.08 Ю 2 7000 м {дождь} 9/6 360 м
[Cb cap Ac As Ci sp]
+29.9 +25.2 76 +43 +49 опасность
перегрева
1010.2 1009.6 7
09 14.08 Ю 5 7000 м 9/6 420 м
[Cu Sc Ac As Ci sp]
+29.8 +22.2 64 +39 +40 очень
душно
1008.4 1007.8
12 14.08 Ю 2 6000 м 9/6 420 м
[Cu Sc Ac As Ci sp]
+28.3 +24.4 79 +40 +40 очень
душно
1009.1 1008.6 +30.4
15 14.08 В 1 7000 м 10/5 500 м
[Sc Ac As]
+26.6 +25.0 91 +38 +38 очень
душно
1011.8 1011.2
18 14.08 В 1 5000 м дымка 10/5 540 м
[Sc Ac As]
+25.2 +25.2 100 +36 +36 очень
душно
1011.1 1010.5
21 14.08 В 1 6000 м 8/4 480 м
[Sc Ac As Ci sp]
+24.4 +23.3 94 +33 +33 очень
душно
1010.0 1009.4
00 15.08 штиль 0 6000 м 8/4 480 м
[Sc Ac und Ci sp]
+24.6 +24.1 97 +34 +34 очень
душно
1010.8 1010.2 +24.2 7
03 15.08 Ю 2 10 км 6/3
[Cu med, cong Ac As Ci sp]
+29.8 +24.9 75 +43 +51 опасность
перегрева
1011.8 1011.2

 

Местоположение метеостанции Meulaboh (Индонезия): широта 4.25 долгота 96.12 высота над уровнем моря 90 м.

В архиве по умолчанию представлена погода в Meulaboh за последнюю неделю. Архивные данные за месяц целиком и за предыдущие месяцы, начиная с января 2011 года, Вы можете получить, выбрав интересующий диапазон дат из раскрывающегося списка и нажав кнопку "Ввод!".


*Определитесь, кто Вы:
робот инопланетянин человек

Внимание! Время в таблицах - всемирное. Для получения местного времени необходимо прибавить поправку, которая в Meulaboh равна 7 ч.

Смотрите также архив погоды в соседних городах и на ближайших метеорологических станциях:

Погода в Banda Aceh (Индонезия) (161 км)
Погода в Lhokseumawe (Индонезия) (162 км)
Погода в Sabang (Индонезия) (201 км)
Погода в Belawan (Индонезия) (291 км)
Погода в Medan Polonia Int Airport (Индонезия) (294 км)
Погода в Gunungsitoli (Индонезия) (349 км)
Погода в Sibolga (Индонезия) (429 км)
Погода в Langkawi (Малайзия) (462 км)
Погода в Penang (Малайзия) (474 км)
Погода в Phuket (Таиланд) (476 км)

Пояснения к столбцам:

Ветер - указаны скорость ветра в м/с - средняя за 10 мин, порывы в срок и между сроками (в фигурных скобках) и направление, откуда дует ветер: С - северный, СВ - северо-восточный, В - восточный, ЮВ - юго-восточный, Ю - южный, ЮЗ - юго-западный, З - западный, СЗ - северо-западный.
Видимость - горизонтальная дальность видимости в метрах или километрах. При видимости от 1 до 10 км при отсутствии осадков обычно наблюдается дымка, при ухудшении видимости до 1 км и менее - туман. В сухую погоду видимость может ухудшаться дымом, пылью или мглою.
Явления - указаны атмосферные явления, наблюдавшиеся в срок или в последний час перед сроком; фигурными скобками обозначены явления, наблюдавшиеся между сроками (за 1-3 часа до срока); квадратными скобками обозначены град или гололедные отложения с указанием их диаметра в мм.
Облачность - указаны через наклонную черту общая и нижняя облачность в баллах и высота нижней границы облаков в метрах; квадратными скобками обозначены формы облаков: Ci - перистые, Cs - перисто-слоистые, Cc - перисто-кучевые, Ac - высококучевые, As - высокослоистые, Sc - слоисто-кучевые, Ns - слоисто-дождевые, Cu - кучевые, Cb - кучево-дождевые. Подробнее классификацию облаков см. в Атласе облаков (PDF).
T - Температура воздуха - температура, измеренная на высоте 2 м над землей.
Td - Температура точки росы - температура, при понижении до которой содержащийся в воздухе водяной пар достигнет насыщения.
f - Относительная влажность воздуха - влажноcть воздуха, измеренная на высоте 2 м над землей.
Te - Эффективная температура - температура, которую ощущает одетый по сезону человек в тени. Характеристика душности погоды. При расчете учитывается влияние влажности воздуха и скорости ветра на теплоощущения человека.
Tes - Эффективная температура на солнце - температура, которую ощущает человек, с поправкой на солнечный нагрев. Характеристика знойности погоды. Зависит от высоты солнца над горизонтом, облачности и скорости ветра. Ночью, в пасмурную погоду, а также при ветре 12 м/с и более поправка равна нулю.
P - Атмосферное давление - приведенное к уровню моря атмосферное давление.
Po - Атмосферное давление - измеренное на уровне метеостанции атмосферное давление.
Tmin - Минимальная температура - минимум температуры воздуха на высоте 2 м над землей.
Tmax - Максимальная температура - максимум температуры воздуха на высоте 2 м над землей.
R - Количество осадков - Количество выпавших осадков за период времени, мм. При наведении курсора мыши на число - период времени, за который выпало указанное количество осадков.
R24 - Количество осадков - Количество выпавших осадков за 24 часа, мм.
S - Снежный покров - Высота снежного покрова, см. При наведении курсора мыши на число - состояние снежного покрова и степень покрытия местности в баллах.